{"data":{"norad_id":62119,"intl_designator":"2024-222F","name":"STARLINK-32535","alt_names":[],"object_type":"PAYLOAD","status":"ACTIVE","operator":null,"country":"US","launch_date":"2024-11-27","launch_site_code":"AFETR","launch_vehicle":null,"mission":null,"orbit_class":"UNKNOWN","rcs_meters":null,"size_class":null,"mass_kg":null,"dimensions":null,"purposes":["comms"],"wikipedia_slug":null,"has_3d_model":false,"image_url":null,"decayed_at":null,"tle_current":{"epoch":"2026-09-20T23:32:08.109024Z","epoch_age_seconds":140573,"freshness":"FRESH","line1":"1 62119U 24222F   26263.98064941  .00018988  00000+0  69704-3 0  9993","line2":"2 62119  43.0032 110.0430 0001701 278.6138  81.4521 15.27613700102664","mean_motion":15.276137,"eccentricity":0.0001701,"inclination_deg":43.0032,"raan_deg":110.043,"arg_perigee_deg":278.6138,"mean_anomaly_deg":81.4521,"bstar":0.00069704,"rev_number":10266,"period_min":94.26466913723,"perigee_km":481.78111738078,"apogee_km":484.11525856173,"semimajor_km":6861.0851879713,"source":"CELESTRAK","updated_at":"2026-09-22T09:00:49.524667Z"}}}